Location: Taukkyan
(23.1052°N, 94.0030°E)
Time: 11:20:11
(UTC+00:00)

Tsikada Rocket - Pass Details

Date: 06 July 2020
Orbit: 959 x 1008 km, 82.9° (Epoch: 15 August)

Event Time Altitude Azimuth Distance (km) Brightness Sun altitude
Rises 20:39:22 0° 359° (N) 3,732 7.6 -28.3°
Reaches altitude 10° 20:41:56 10° 2° (N) 2,783 6.9 -27.9°
Maximum altitude 20:48:18 67° 85° (E) 1,084 4.3 -26.8°
Enters shadow 20:51:43 29° 160° (SSE) 1,760 5.1 -26.3°
